Regional Weather Roundup
Issued by NWS

Home | Current Version | Previous Version | Graphics & Text | Print | Product List | Glossary On
Versions: 1 2 3 4 5 6 7 8 9 10 11 12 13 14 15 16 17 18 19 20 21 22 23 24 25 26 27 28 29 30 31 32 33 34 35 36 37 38 39 40 41 42 43 44 45 46 47 48 49 50
000
ASUS43 KMKX 260721
RWRWI

WISCONSIN REGIONAL WEATHER ROUNDUP
NATIONAL WEATHER SERVICE MILWAUKEE/SULLIVAN WI
200 AM CDT FRI MAY 26 2017

NOTE: "FAIR" INDICATES FEW OR NO CLOUDS BELOW 12,000 FEET WITH NO
SIGNIFICANT WEATHER AND/OR OBSTRUCTIONS TO VISIBILITY.

WIZ001-002-006>008-014>016-023>028-260800-
NORTHWEST WISCONSIN

CITY           SKY/WX    TMP DP  RH WIND       PRES   REMARKS
SUPERIOR ARPT  NOT AVBL
ASHLAND        MOCLDY    48  46  93 CALM      29.74R
HAYWARD        CLOUDY    56  51  84 CALM      29.75R
SIREN          CLOUDY    57  55  94 CALM      29.73S
CUMBERLAND     CLOUDY    57  52  82 SE5       29.74S
RICE LAKE      CLOUDY    58  56  92 E3        29.76S
CHETEK         CLOUDY    57  56  97 CALM      29.75S
LADYSMITH      LGT RAIN  59  54  84 SW5       29.78R
EAU CLAIRE     LGT RAIN  60  55  83 S8        29.75R
MENOMONIE      CLOUDY    60  55  83 E3        29.73F
NEW RICHMOND   CLOUDY    59  53  81 SE5       29.72S
OSCEOLA        CLOUDY    61  54  76 SE3       29.74S
$$

WIZ003>005-009-010-017-018-260800-
NORTH CENTRAL WISCONSIN

CITY           SKY/WX    TMP DP  RH WIND       PRES   REMARKS
MANITOWISH WTR CLOUDY    57  49  75 SE7       29.77S
ARBOR VITAE    CLOUDY    57  50  78 SE5       29.78R
WOODRUFF       CLOUDY    57  50  78 SE5       29.78R
RHINELANDER    CLOUDY    57  51  80 SE8       29.80R
EAGLE RIVER    CLEAR     53  47  79 S3        29.80R
LAND O LAKES   PTCLDY    50  46  87 CALM      29.81R
PHILLIPS       CLOUDY    56  52  87 CALM      29.76R
TOMAHAWK       CLOUDY    57  50  78 CALM      29.80R
MEDFORD        CLOUDY    56  51  85 SE6       29.78R
MERRILL        CLOUDY    58  52  78 SE3       29.80R
$$

WIZ029-030-035-036-043>047-260800-
CENTRAL WISCONSIN

CITY           SKY/WX    TMP DP  RH WIND       PRES   REMARKS
WAUSAU         CLOUDY    58  51  78 SE6       29.78R
MOSINEE        CLOUDY    55  52  88 E5        29.80R
MARSHFIELD     CLOUDY    56  51  84 SW6       29.77R
STEVENS POINT  CLOUDY    55  50  85 CALM      29.80R
WAUPACA        MOCLDY    58  53  84 CALM      29.80R
WAUTOMA        CLOUDY    52  51  97 CALM      29.80R
WISC RAPIDS    MOCLDY    52  50  93 SE3       29.80R
CAMP DOUGLAS   LGT RAIN  55  55 100 CALM      29.78R
$$

WIZ011>013-019>022-031-037>040-048>050-260800-
NORTHEAST WISCONSIN

CITY           SKY/WX    TMP DP  RH WIND       PRES   REMARKS
ANTIGO         MOCLDY    52  51  95 SE5       29.81R
SHAWANO        MOCLDY    53  51  92 CALM      29.80R
OCONTO         CLEAR     46  45  98 CALM      29.79S
STURGEON BAY   FOG       48  48 100 CALM      29.80R VSB 1/2
GREEN BAY      CLEAR     51  51 100 CALM      29.78F
MANITOWOC      CLEAR     51  49  92 W3        29.79S FOG
APPLETON       MOCLDY    54  48  82 SE3       29.79R
CLINTONVILLE   PTCLDY    54  50  87 CALM      29.80R
OSHKOSH        CLEAR     54  51  90 CALM      29.79R
$$

WIZ032>034-041-042-053>061-260800-
SOUTHWEST WISCONSIN

CITY           SKY/WX    TMP DP  RH WIND       PRES   REMARKS
LA CROSSE      CLOUDY    61  58  90 E5        29.75F
SPARTA         LGT RAIN  54  54 100 CALM      29.79S
VIROQUA        CLOUDY    58  55  87 MISG      29.78S
BOSCOBEL       CLOUDY    56  54  93 E3        29.77F FOG
PRAIRIE DU CHI CLOUDY    57  53  85 SE5       29.76S
PLATTEVILLE    CLOUDY    59  56  89 S5        29.80S
$$

WIZ056-057-062-063-064-067-068-260800-
SOUTH CENTRAL WISCONSIN

CITY           SKY/WX    TMP DP  RH WIND       PRES   REMARKS
REEDSBURG      LGT RAIN  56  56 100 CALM      29.79R
BARABOO/DELLS  CLOUDY    57  52  81 SW5       29.80R
LONE ROCK      CLOUDY    57  55  93 CALM      29.78S FOG
MINERAL POINT  CLOUDY    59  55  88 CALM      29.79F
MADISON        CLOUDY    58  52  80 SE5       29.79R
MIDDLETON      CLOUDY    56  56 100 CALM      29.81R
WATERTOWN      PTCLDY    51  51 100 CALM      29.79R
MONROE         CLOUDY    61  54  77 SW6       29.80R
JANESVILLE     CLOUDY    55  54  94 CALM      29.80R
$$

WIZ051-052-058>065-066-070>072-260800-
SOUTHEAST WISCONSIN

CITY           SKY/WX    TMP DP  RH WIND       PRES   REMARKS
MILWAUKEE      PTCLDY    53  51  93 CALM      29.79R
WAUKESHA       CLOUDY    46  46 100 CALM      29.80R
MILWAUKEE/TIMM   N/A     50  45  81 CALM      29.80R
RACINE         CLEAR     52  49  89 NW3       29.80R
KENOSHA        CLEAR     50  48  93 CALM      29.79R
FOND DU LAC    CLEAR     52  49  89 CALM      29.80R
SHEBOYGAN      CLEAR     49  49 100 CALM      29.78S FOG
WEST BEND      CLEAR     46  46 100 CALM      29.80R
JUNEAU         PTCLDY    54  52  95 CALM      29.81R
$$

LSZ147-162-260800-
LAKE SUPERIOR

STATION/POSITION TIME  TEMP    WIND        PRES    WAVE
                       AIR SEA DIR/SP/G            HT/PER
                 (UTC) (F)     (DEG/KT/KT) (MB)    (FT/S)
W MID LAKE BUOY  0650   44 37  110/ 10/ 12 1007.4F   1
DEVILS ISLAND    0700   43      10/  4/  4 1007.4R
PORT WING        0630   45     180/  2/  3 1007.5R
SAXON HARBOR     0630   46     160/  2/  3 1006.8R
$$

LMZ867-665-643>646-260800-
LAKE MICHIGAN

STATION/POSITION TIME  TEMP    WIND        PRES    WAVE
                       AIR SEA DIR/SP/G            HT/PER
                 (UTC) (F)     (DEG/KT/KT) (MB)    (FT/S)
CHAMBERS ISLAND  0640   48      CALM  /  3 1008.5R
N MID LAKE BUOY  0650   42 41  290/  4/  6 1009.3R   0
NORTHPORT PIER   0640   51     300/  4/  6 1008.5S
KEWAUNEE LAKESHO 0654   51     320/  3/  4 1008.3R
SHEBOYGAN LAKESH 0700   53      20/  8/  8 1008.3F
PORT WASHINGTON  0640   55     330/  2/  4 1009.5S
ATWATER BUOY     0609   51     360/  4/  8 1008.7R
MILWAUKEE LAKESH 0700   54     290/  1/  2   N/A
S MID LAKE BUOY  0650   47 45  340/  8/ 10 1008.2R   2/ 5
KENOSHA   LAKESH 0700   54        CALM     1009.1
$$

TC  - TEMPERATURE IN CELSIUS
VSB - VISIBILITY IN STATUTE MILES
WCI - WIND CHILL INDEX
HX  - HEAT INDEX





USA.gov is the U.S. government's official web portal to all federal, state and local government web resources and services.